Regional Weather Roundup
Issued by NWS Wakefield, VA

Home | Current Version | Previous Version | Graphics & Text | Print | Product List | Glossary Off
Versions: 1 2 3 4 5 6 7 8 9 10 11 12 13 14 15 16 17 18 19 20 21 22 23 24 25 26 27 28 29 30 31 32 33 34 35 36 37 38 39 40 41 42 43 44 45 46 47 48 49 50

958
ASUS41 KAKQ 271214
RWRAKQ

REGIONAL WEATHER ROUNDUP
NATIONAL WEATHER SERVICE WAKEFIELD VA
700 AM EST MON FEB 27 2017

Note: "fair" indicates few or no clouds below 12,000 feet with no
significant weather and/or obstructions to visibility. * = Denotes
station may not report precipitation (e.g., rain,snow,etc.),
thunder or fog.

VAZ042-051-052>054-056-271300-
NORTHERN VIRGINIA

CITY           SKY/WX    TMP DP  RH WIND       PRES   REMARKS
WASH NATIONAL  MOCLDY    39  34  82 SW5       30.41R
DULLES         MOCLDY    28  23  81 CALM      30.40R
FORT BELVOIR   CLOUDY    30  25  83 CALM      30.41R
QUANTICO       MOCLDY    34  32  92 NW6       30.43R
FREDERICKSBRG* CLOUDY    31  29  91 CALM      30.41R
STAFFORD*      CLOUDY    29  28  98 CALM      30.45R
WARRENTON      CLOUDY    30  25  81 CALM      30.40R
CULPEPER*      CLOUDY    30  27  89 CALM      30.41R
MANASSAS*      CLOUDY    28  25  88 CALM      30.42R
LEESBURG*      CLOUDY    30  27  86 MISG      30.40R
WINCHESTER     CLOUDY    32  18  55 SW3       30.35R
FRONT ROYAL*   CLOUDY    32  21  64 S5        30.35R
LURAY*         NOT AVBL
$$

VAZ048-049-060>072-079>083-271300-
CENTRAL AND SOUTH CENTRAL VIRGINIA

CITY           SKY/WX    TMP DP  RH WIND       PRES   REMARKS
RICHMOND       MOCLDY    33  29  85 CALM      30.40R
CHESTERFIELD*  PTSUNNY   32  12  43 CALM      30.41R
PETERSBURG*    MOCLDY    28  27  95 CALM      30.41R
HANOVER        CLOUDY    30  26  85 CALM      30.42R
TAPPAHANNOCK*  CLOUDY    33  30  88 CALM      30.41R
QUINTON*       FAIR      31  31  99 MISG      30.41R
CHARLOTTSVILLE CLOUDY    31  21  66 CALM      30.38R
GORDONSVILLE*  NOT AVBL
ORANGE*        CLOUDY    30  25  80 CALM      30.40R
LOUISA*        CLOUDY    32  28  86 CALM      30.38R
BUMPASS*       NOT AVBL
FARMVILLE*     CLOUDY    30  29  96 CALM      30.39R
CREWE*         CLOUDY    30  30 100 CALM      30.38R
FORT PICKETT*  NOT AVBL
CHASE CITY*    NOT AVBL
CLARKSVILLE*   FAIR      34  32  93 CALM      30.38R
SOUTH HILL*    PTCLDY    37  28  69 S3        30.44R
LAWRENCEVILLE* NOT AVBL
EMPORIA*       CLEAR     28  28 100 CALM      30.42R
$$

VAZ088>098-271300-
SOUTHEAST VIRGINIA

CITY           SKY/WX    TMP DP  RH WIND       PRES   REMARKS
NORFOLK        CLOUDY    42  38  85 S3        30.41R
VIRGINIA BEACH CLOUDY    38  34  85 SE3       30.41R
NORFOLK NAVAL  CLOUDY    44  39  82 S5        30.43R
WEST POINT*    PTCLDY    30  29  94 CALM      30.43R
SALUDA*        FAIR      38  37  97 S3        30.41R
NEWPORT NEWS   PTCLDY    36  35  96 CALM      30.42R FOG
LANGLEY AFB    CLOUDY    43  41  93 CALM      30.41R
FORT EUSTIS    CLOUDY    42  38  87 SE5       30.39R
WILLIAMSBURG*  PTCLDY    43  39  87 CALM      30.42R
HR EXEC AP*    FAIR      36  32  87 CALM      30.40F
FRANKLIN*      PTCLDY    32  31  94 CALM      30.42S
US460-WAKEFLD  CLOUDY    32  30  92 CALM      30.42R
$$

VAZ020-022-025-037-045-271300-
WEST CENTRAL AND SOUTHWEST VIRGINIA

CITY           SKY/WX    TMP DP  RH WIND       PRES   REMARKS
STAUNTON*      CLOUDY    23  19  85 CALM      30.39R
WAYNESBORO*    CLOUDY    27  18  68 MISG      30.35R
HOT SPRINGS VA CLOUDY    34   5  29 W9        30.31R
LYNCHBURG      CLOUDY    36  20  52 CALM      30.40R
DANVILLE       PTCLDY    32  28  85 CALM      30.40R
SOUTH BOSTON*  FAIR      32  30  93 CALM      30.40R
MARTINSVILLE   CLOUDY    31  26  81 CALM      30.40R
ROANOKE        CLOUDY    34  20  56 CALM      30.39R
BLACKSBURG     CLOUDY    32  23  70 CALM      30.36F
DUBLIN*        MOCLDY    32  26  77 CALM      30.35R
MARION*        PTCLDY    31  22  69 E3        30.34S
HILLSVILLE*    CLOUDY    36  17  46 CALM      30.31R
RICHLANDS*     CLOUDY    40  17  38 CALM      30.29R
WISE*          CLOUDY    37  18  44 CALM      30.29R
ABINGDON*      CLOUDY    38  21  49 E9        30.29R
$$

MDZ021>025-VAZ099-100-271300-
SOUTHERN MARYLAND AND THE DELMARVA PENINSULA

CITY           SKY/WX    TMP DP  RH WIND       PRES   REMARKS
PATUXENT RIVER MOCLDY    32  31  96 CALM      30.40R
BAY BRIDGE APT MOCLDY    39  36  87 S6        30.41R
LEONARDTOWN    CLOUDY    34  32  93 S3        30.42R
DOVER          PTCLDY    31  30  95 S8        30.40R
GEORGETOWN     CLEAR     28  24  85 CALM      30.42R
EASTON         PTCLDY    30  27  86 CALM      30.44R
CAMBRIDGE      PTCLDY    34  32  93 SE6       30.42R
SALISBURY      CLEAR     27  25  92 CALM      30.42R
OCEAN CITY     PTCLDY    41  36  82 S5        30.43R
WALLOPS ISLAND CLEAR     40  33  76 S8        30.43R
ACCOMACK*      CLEAR     40  37  89 SE7       30.42R
$$

NCZ012>017-030>032-271300-
NORTH CENTRAL AND EASTERN NORTH CAROLINA

CITY           SKY/WX    TMP DP  RH WIND       PRES   REMARKS
ROANOKE RAPIDS FAIR      30  28  93 CALM      30.40S
RALEIGH        CLOUDY    41  23  48 SE5       30.40R
ELIZABETH CITY PTCLDY    45  38  76 SE6       30.43R
AHOSKIE*         N/A     30  27  90 CALM      30.42S
EDENTON*       PTCLDY    37  34  91 CALM      30.43R
CURRITUCK*     PTCLDY    38  38 100 CALM      30.43R
KILL DEVIL HLS NOT AVBL
MANTEO         PTCLDY    37  37  99 E3        30.43S
CAPE HATTERAS  CLEAR     45  36  70 NE5       30.43R
TARBORO*       NOT AVBL
GOLDSBORO      CLEAR     35  29  82 SE3       30.36F
WASHINGTON     PTCLDY    32  30  90 CALM      30.42S
GREENVILLE     CLEAR     32  32 100 E3        30.39F
NEW BERN       CLEAR     31  31 100 CALM      30.42S
WILMINGTON     PTCLDY    34  32  92 CALM      30.38F
$$

VAZ048-271300-
ELSEWHERE

CITY           SKY/WX    TMP DP  RH WIND       PRES   REMARKS
HARRISBURG PA  CLOUDY    32  24  72 E6        30.37R
BALTIMORE      PTCLDY    28  24  85 CALM      30.40R
ANNAPOLIS      PTCLDY    38  36  92 CALM      30.40R
ANDREWS AFB    PTCLDY    35  32  91 SE3       30.38R
PHILADELPHIA   PTCLDY    34  24  67 S6        30.41R
HENDERSON NC   CLOUDY    37  21  52 S7        30.38R
GREENSBORO     MOCLDY    36  26  67 N3        30.36R
ROCKY MOUNT    PTCLDY    34  30  85 CALM      30.39S
$$

VAZ100-271300-
MARINE

STATION/POSITION TIME  TEMP    WIND        PRES    WAVE   SWELL
                       AIR SEA DIR/SP/G            HT/PER HT/PER
                 (UTC) (F)     (DEG/KT/KT) (MB)    (FT/S) (FT/S)
CAPE MAY NJ      1148   39 44  160/  3/  5 1029.9R
LEWES DE         1148   38 45  180/  4/  6 1030.0R
OCEAN-CITY-INLET 1142   43 44  180/  7/  9 1030.6R
WACHAPREAGUE VA  1148   45 49  170/  7/  9 1030.2R
THOMAS POINT MD  1200   44 44  170/ 13/ 14   N/A
GOOSES REEF MD   1150   44     180/ 12/ 16 1029.9R
COVE POINT MD    1148   43     190/ 11/ 12 1030.1R
SOLOMONS ISLAND  1142   41 45  140/  4/  5   N/A
BISHOPS HEAD MD  1148   45 45  160/ 15/ 17 1029.9R
PINEY POINT MD   1148          190/  7/  9   N/A
POTOMAC MD       1150   44     190/  6/  8 1029.0R
CAMBRIDGE MD     1148   38 47  170/  4/  7 1029.2R
LEWISETTA VA     1142   40 49  230/  4/  5 1029.6R
RAPPAHANNOCK LGT 1148          150/  9/ 10 1030.4R
YORK RVR RNG VA  1148   46     200/  9/ 10 1029.1R
YORKTOWN VA      1148   43 49  200/  3/  5 1029.6R
JAMESTOWN VA     1150   43     120/  4/  6   N/A
DOMINION TERM VA 1148   45     150/  5/  6 1029.9R
KIPTOPEKE VA     1148      49  140/  7/  7   N/A
CHES BAY BRIDGE  1148   46 49  170/  8/  9 1029.7R
CAPE HENRY VA    1148   45     160/  7/  9   N/A
WILLOUBY STN VA  1148   45     160/ 10/ 11 1030.4R
S CRANEY ISL VA  1148   45     160/  8/  9 1029.5R
CAPE HENRY BUOY  1142      48                N/A     2/ 9
OFFSHORE WE BUOY 1151      48                N/A     2/ 8
64NM E OF VA BCH 1150   48 47  100/  4/  6 1030.6R   3/ 8   3/ 8
DUCK PIER NC     1148   48 49  120/  8/ 10 1030.0R
44100 DUCK FRF   1135      49                N/A     2/ 9
44056 DUCK FRF   1130      49                N/A     2/ 9
OREGON INLET NC  1142   48 56   80/  4/  5 1030.3R
HATTERAS NC      1148   52 60   50/  4/  5 1030.0R
DIAMOND SHLS NC  1150   58 71   50/  4/  8 1030.2R   3/ 8   3/ 8
CAPE LOOKOUT NC  1100   57      60/  6/  7 1028.9R
$$




USA.gov is the U.S. government's official web portal to all federal, state and local government web resources and services.